owner,sensor,date,latitude,longitude,sea_surface_height_above_sea_level,qcFlag 
DISL,ioos:station:DISL:CATA:1,2017-11-01T00:30:00Z,30.3085,-88.1395,2.166,1111122 
DISL,ioos:station:DISL:CATA:1,2017-11-01T01:30:00Z,30.3085,-88.1395,2.205,1111122 
DISL,ioos:station:DISL:CATA:1,2017-11-01T02:30:00Z,30.3085,-88.1395,2.251,1111122 
DISL,ioos:station:DISL:CATA:1,2017-11-01T03:30:00Z,30.3085,-88.1395,2.279,1111122 
DISL,ioos:station:DISL:CATA:1,2017-11-01T04:30:00Z,30.3085,-88.1395,2.282,1111122 
DISL,ioos:station:DISL:CATA:1,2017-11-01T05:30:00Z,30.3085,-88.1395,2.274,1111122 
DISL,ioos:station:DISL:CATA:1,2017-11-01T06:30:00Z,30.3085,-88.1395,2.255,1111122 
DISL,ioos:station:DISL:CATA:1,2017-11-01T07:30:00Z,30.3085,-88.1395,2.225,1111122 
DISL,ioos:station:DISL:CATA:1,2017-11-01T08:30:00Z,30.3085,-88.1395,2.215,1111122 
DISL,ioos:station:DISL:CATA:1,2017-11-01T09:30:00Z,30.3085,-88.1395,2.22,1111122 
DISL,ioos:station:DISL:CATA:1,2017-11-01T10:30:00Z,30.3085,-88.1395,2.24,1111122 
DISL,ioos:station:DISL:CATA:1,2017-11-01T11:30:00Z,30.3085,-88.1395,2.275,1111122 
DISL,ioos:station:DISL:CATA:1,2017-11-01T12:30:00Z,30.3085,-88.1395,2.301,1111122 
DISL,ioos:station:DISL:CATA:1,2017-11-01T13:30:00Z,30.3085,-88.1395,2.32,1111122 
DISL,ioos:station:DISL:CATA:1,2017-11-01T14:30:00Z,30.3085,-88.1395,2.353,1111122 
DISL,ioos:station:DISL:CATA:1,2017-11-01T15:30:00Z,30.3085,-88.1395,2.383,1111122 
DISL,ioos:station:DISL:CATA:1,2017-11-01T16:30:00Z,30.3085,-88.1395,2.411,1111122 
DISL,ioos:station:DISL:CATA:1,2017-11-01T17:30:00Z,30.3085,-88.1395,2.409,1111122 
DISL,ioos:station:DISL:CATA:1,2017-11-01T18:30:00Z,30.3085,-88.1395,2.39,1111122 
DISL,ioos:station:DISL:CATA:1,2017-11-01T19:30:00Z,30.3085,-88.1395,2.385,1111122 
DISL,ioos:station:DISL:CATA:1,2017-11-01T20:30:00Z,30.3085,-88.1395,2.371,1111122 
DISL,ioos:station:DISL:CATA:1,2017-11-01T21:30:00Z,30.3085,-88.1395,2.376,1111122 
DISL,ioos:station:DISL:CATA:1,2017-11-01T22:30:00Z,30.3085,-88.1395,2.404,1111122 
DISL,ioos:station:DISL:CATA:1,2017-11-01T23:30:00Z,30.3085,-88.1395,2.431,1111122 
DISL,ioos:station:DISL:CATA:1,2017-11-02T00:30:00Z,30.3085,-88.1395,2.445,1111122 
DISL,ioos:station:DISL:CATA:1,2017-11-02T01:30:00Z,30.3085,-88.1395,2.456,1111122 
DISL,ioos:station:DISL:CATA:1,2017-11-02T02:30:00Z,30.3085,-88.1395,2.465,1111122 
DISL,ioos:station:DISL:CATA:1,2017-11-02T03:30:00Z,30.3085,-88.1395,2.499,1111122 
DISL,ioos:station:DISL:CATA:1,2017-11-02T04:30:00Z,30.3085,-88.1395,2.512,1111122 
DISL,ioos:station:DISL:CATA:1,2017-11-02T05:30:00Z,30.3085,-88.1395,2.512,1111122 
DISL,ioos:station:DISL:CATA:1,2017-11-02T06:30:00Z,30.3085,-88.1395,2.46,1111122 
DISL,ioos:station:DISL:CATA:1,2017-11-02T07:30:00Z,30.3085,-88.1395,2.423,1111122 
DISL,ioos:station:DISL:CATA:1,2017-11-02T08:30:00Z,30.3085,-88.1395,2.369,1111122 
DISL,ioos:station:DISL:CATA:1,2017-11-02T09:30:00Z,30.3085,-88.1395,2.311,1111122 
DISL,ioos:station:DISL:CATA:1,2017-11-02T10:30:00Z,30.3085,-88.1395,2.292,1111122 
DISL,ioos:station:DISL:CATA:1,2017-11-02T11:30:00Z,30.3085,-88.1395,2.281,1111122 
DISL,ioos:station:DISL:CATA:1,2017-11-02T12:30:00Z,30.3085,-88.1395,2.261,1111122 
DISL,ioos:station:DISL:CATA:1,2017-11-02T13:30:00Z,30.3085,-88.1395,2.295,1111122 
DISL,ioos:station:DISL:CATA:1,2017-11-02T14:30:00Z,30.3085,-88.1395,2.314,1111122 
DISL,ioos:station:DISL:CATA:1,2017-11-02T15:30:00Z,30.3085,-88.1395,2.345,1111122 
DISL,ioos:station:DISL:CATA:1,2017-11-02T16:30:00Z,30.3085,-88.1395,2.364,1111122 
DISL,ioos:station:DISL:CATA:1,2017-11-02T17:30:00Z,30.3085,-88.1395,2.374,1111122 
DISL,ioos:station:DISL:CATA:1,2017-11-02T18:30:00Z,30.3085,-88.1395,2.371,1111122 
DISL,ioos:station:DISL:CATA:1,2017-11-02T19:30:00Z,30.3085,-88.1395,2.347,1111122 
DISL,ioos:station:DISL:CATA:1,2017-11-02T20:30:00Z,30.3085,-88.1395,2.335,1111122 
DISL,ioos:station:DISL:CATA:1,2017-11-02T21:30:00Z,30.3085,-88.1395,2.336,1111122 
DISL,ioos:station:DISL:CATA:1,2017-11-02T22:30:00Z,30.3085,-88.1395,2.362,1111122 
DISL,ioos:station:DISL:CATA:1,2017-11-02T23:30:00Z,30.3085,-88.1395,2.383,1111122 
DISL,ioos:station:DISL:CATA:1,2017-11-03T00:30:00Z,30.3085,-88.1395,2.402,1111122 
DISL,ioos:station:DISL:CATA:1,2017-11-03T01:30:00Z,30.3085,-88.1395,2.426,1111122 
DISL,ioos:station:DISL:CATA:1,2017-11-03T02:30:00Z,30.3085,-88.1395,2.444,1111122 
DISL,ioos:station:DISL:CATA:1,2017-11-03T03:30:00Z,30.3085,-88.1395,2.452,1111122 
DISL,ioos:station:DISL:CATA:1,2017-11-03T04:30:00Z,30.3085,-88.1395,2.452,1111122 
DISL,ioos:station:DISL:CATA:1,2017-11-03T05:30:00Z,30.3085,-88.1395,2.438,1111122 
DISL,ioos:station:DISL:CATA:1,2017-11-03T06:30:00Z,30.3085,-88.1395,2.389,1111122 
DISL,ioos:station:DISL:CATA:1,2017-11-03T07:30:00Z,30.3085,-88.1395,2.307,1111122 
DISL,ioos:station:DISL:CATA:1,2017-11-03T08:30:00Z,30.3085,-88.1395,2.242,1111122 
DISL,ioos:station:DISL:CATA:1,2017-11-03T09:30:00Z,30.3085,-88.1395,2.186,1111122 
DISL,ioos:station:DISL:CATA:1,2017-11-03T10:30:00Z,30.3085,-88.1395,2.136,1111122 
DISL,ioos:station:DISL:CATA:1,2017-11-03T11:30:00Z,30.3085,-88.1395,2.117,1111122 
DISL,ioos:station:DISL:CATA:1,2017-11-03T12:30:00Z,30.3085,-88.1395,2.143,1111122 
DISL,ioos:station:DISL:CATA:1,2017-11-03T13:30:00Z,30.3085,-88.1395,2.168,1111122 
DISL,ioos:station:DISL:CATA:1,2017-11-03T14:30:00Z,30.3085,-88.1395,2.192,1111122 
DISL,ioos:station:DISL:CATA:1,2017-11-03T15:30:00Z,30.3085,-88.1395,2.225,1111122 
DISL,ioos:station:DISL:CATA:1,2017-11-03T16:30:00Z,30.3085,-88.1395,2.256,1111122 
DISL,ioos:station:DISL:CATA:1,2017-11-03T17:30:00Z,30.3085,-88.1395,2.307,1111122 
DISL,ioos:station:DISL:CATA:1,2017-11-03T18:30:00Z,30.3085,-88.1395,2.341,1111122 
DISL,ioos:station:DISL:CATA:1,2017-11-03T19:30:00Z,30.3085,-88.1395,2.362,1111122 
DISL,ioos:station:DISL:CATA:1,2017-11-03T20:30:00Z,30.3085,-88.1395,2.388,1111122 
DISL,ioos:station:DISL:CATA:1,2017-11-03T21:30:00Z,30.3085,-88.1395,2.398,1111122 
DISL,ioos:station:DISL:CATA:1,2017-11-03T22:30:00Z,30.3085,-88.1395,2.438,1111122 
DISL,ioos:station:DISL:CATA:1,2017-11-04T00:30:00Z,30.3085,-88.1395,2.512,1111122 
DISL,ioos:station:DISL:CATA:1,2017-11-04T01:30:00Z,30.3085,-88.1395,2.533,1111122 
DISL,ioos:station:DISL:CATA:1,2017-11-04T02:30:00Z,30.3085,-88.1395,2.547,1111122 
DISL,ioos:station:DISL:CATA:1,2017-11-04T03:30:00Z,30.3085,-88.1395,2.564,1111122 
DISL,ioos:station:DISL:CATA:1,2017-11-04T04:30:00Z,30.3085,-88.1395,2.545,1111122 
DISL,ioos:station:DISL:CATA:1,2017-11-04T05:30:00Z,30.3085,-88.1395,2.518,1111122 
DISL,ioos:station:DISL:CATA:1,2017-11-04T06:30:00Z,30.3085,-88.1395,2.459,1111122 
DISL,ioos:station:DISL:CATA:1,2017-11-04T07:30:00Z,30.3085,-88.1395,2.381,1111122 
DISL,ioos:station:DISL:CATA:1,2017-11-04T08:30:00Z,30.3085,-88.1395,2.287,1111122 
DISL,ioos:station:DISL:CATA:1,2017-11-04T09:30:00Z,30.3085,-88.1395,2.193,1111122 
DISL,ioos:station:DISL:CATA:1,2017-11-04T10:30:00Z,30.3085,-88.1395,2.118,1111122 
DISL,ioos:station:DISL:CATA:1,2017-11-04T11:30:00Z,30.3085,-88.1395,2.071,1111122 
DISL,ioos:station:DISL:CATA:1,2017-11-04T12:30:00Z,30.3085,-88.1395,2.054,1111122 
DISL,ioos:station:DISL:CATA:1,2017-11-04T13:30:00Z,30.3085,-88.1395,2.081,1111122 
DISL,ioos:station:DISL:CATA:1,2017-11-04T14:30:00Z,30.3085,-88.1395,2.107,1111122 
DISL,ioos:station:DISL:CATA:1,2017-11-04T15:30:00Z,30.3085,-88.1395,2.137,1111122 
DISL,ioos:station:DISL:CATA:1,2017-11-04T16:30:00Z,30.3085,-88.1395,2.166,1111122 
DISL,ioos:station:DISL:CATA:1,2017-11-04T17:30:00Z,30.3085,-88.1395,2.216,1111122 
DISL,ioos:station:DISL:CATA:1,2017-11-04T18:30:00Z,30.3085,-88.1395,2.262,1111122 
DISL,ioos:station:DISL:CATA:1,2017-11-04T19:30:00Z,30.3085,-88.1395,2.309,1111122 
DISL,ioos:station:DISL:CATA:1,2017-11-04T20:30:00Z,30.3085,-88.1395,2.342,1111122 
DISL,ioos:station:DISL:CATA:1,2017-11-04T21:30:00Z,30.3085,-88.1395,2.37,1111122 
DISL,ioos:station:DISL:CATA:1,2017-11-04T22:30:00Z,30.3085,-88.1395,2.409,1111122 
DISL,ioos:station:DISL:CATA:1,2017-11-04T23:30:00Z,30.3085,-88.1395,2.464,1111122 
DISL,ioos:station:DISL:CATA:1,2017-11-05T00:30:00Z,30.3085,-88.1395,2.51,1111122 
DISL,ioos:station:DISL:CATA:1,2017-11-05T01:30:00Z,30.3085,-88.1395,2.558,1111122 
DISL,ioos:station:DISL:CATA:1,2017-11-05T02:30:00Z,30.3085,-88.1395,2.602,1111122 
DISL,ioos:station:DISL:CATA:1,2017-11-05T03:30:00Z,30.3085,-88.1395,2.613,1111122 
DISL,ioos:station:DISL:CATA:1,2017-11-05T04:30:00Z,30.3085,-88.1395,2.607,1111122 
DISL,ioos:station:DISL:CATA:1,2017-11-05T05:30:00Z,30.3085,-88.1395,2.575,1111122 
DISL,ioos:station:DISL:CATA:1,2017-11-05T06:30:00Z,30.3085,-88.1395,2.535,1111122 
DISL,ioos:station:DISL:CATA:1,2017-11-05T08:30:00Z,30.3085,-88.1395,2.388,1111122 
DISL,ioos:station:DISL:CATA:1,2017-11-05T09:30:00Z,30.3085,-88.1395,2.292,1111122 
DISL,ioos:station:DISL:CATA:1,2017-11-05T10:30:00Z,30.3085,-88.1395,2.196,1111122 
DISL,ioos:station:DISL:CATA:1,2017-11-05T11:30:00Z,30.3085,-88.1395,2.122,1111122 
DISL,ioos:station:DISL:CATA:1,2017-11-05T12:30:00Z,30.3085,-88.1395,2.065,1111122 
DISL,ioos:station:DISL:CATA:1,2017-11-05T13:30:00Z,30.3085,-88.1395,2.041,1111122 
DISL,ioos:station:DISL:CATA:1,2017-11-05T14:30:00Z,30.3085,-88.1395,2.058,1111122 
DISL,ioos:station:DISL:CATA:1,2017-11-05T15:30:00Z,30.3085,-88.1395,2.089,1111122 
DISL,ioos:station:DISL:CATA:1,2017-11-05T16:30:00Z,30.3085,-88.1395,2.119,1111122 
DISL,ioos:station:DISL:CATA:1,2017-11-05T17:30:00Z,30.3085,-88.1395,2.16,1111122 
DISL,ioos:station:DISL:CATA:1,2017-11-05T18:30:00Z,30.3085,-88.1395,2.221,1111122 
DISL,ioos:station:DISL:CATA:1,2017-11-05T19:30:00Z,30.3085,-88.1395,2.257,1111122 
DISL,ioos:station:DISL:CATA:1,2017-11-05T20:30:00Z,30.3085,-88.1395,2.308,1111122 
DISL,ioos:station:DISL:CATA:1,2017-11-05T21:30:00Z,30.3085,-88.1395,2.359,1111122 
DISL,ioos:station:DISL:CATA:1,2017-11-05T22:30:00Z,30.3085,-88.1395,2.421,1111122 
DISL,ioos:station:DISL:CATA:1,2017-11-05T23:30:00Z,30.3085,-88.1395,2.488,1111122 
DISL,ioos:station:DISL:CATA:1,2017-11-06T00:30:00Z,30.3085,-88.1395,2.549,1111122 
DISL,ioos:station:DISL:CATA:1,2017-11-06T01:30:00Z,30.3085,-88.1395,2.609,1111122 
DISL,ioos:station:DISL:CATA:1,2017-11-06T02:30:00Z,30.3085,-88.1395,2.657,1111122 
DISL,ioos:station:DISL:CATA:1,2017-11-06T03:30:00Z,30.3085,-88.1395,2.701,1111122 
DISL,ioos:station:DISL:CATA:1,2017-11-06T04:30:00Z,30.3085,-88.1395,2.696,1111122 
DISL,ioos:station:DISL:CATA:1,2017-11-06T05:30:00Z,30.3085,-88.1395,2.67,1111122 
DISL,ioos:station:DISL:CATA:1,2017-11-06T06:30:00Z,30.3085,-88.1395,2.612,1111122 
DISL,ioos:station:DISL:CATA:1,2017-11-06T07:30:00Z,30.3085,-88.1395,2.562,1111122 
DISL,ioos:station:DISL:CATA:1,2017-11-06T08:30:00Z,30.3085,-88.1395,2.483,1111122 
DISL,ioos:station:DISL:CATA:1,2017-11-06T09:30:00Z,30.3085,-88.1395,2.391,1111122 
DISL,ioos:station:DISL:CATA:1,2017-11-06T10:30:00Z,30.3085,-88.1395,2.286,1111122 
DISL,ioos:station:DISL:CATA:1,2017-11-06T11:30:00Z,30.3085,-88.1395,2.181,1111122 
DISL,ioos:station:DISL:CATA:1,2017-11-06T12:30:00Z,30.3085,-88.1395,2.092,1111122 
DISL,ioos:station:DISL:CATA:1,2017-11-06T13:30:00Z,30.3085,-88.1395,2.03,1111122 
DISL,ioos:station:DISL:CATA:1,2017-11-06T14:30:00Z,30.3085,-88.1395,1.993,1111122 
DISL,ioos:station:DISL:CATA:1,2017-11-06T15:30:00Z,30.3085,-88.1395,1.988,1111122 
DISL,ioos:station:DISL:CATA:1,2017-11-06T16:30:00Z,30.3085,-88.1395,2.01,1111122 
DISL,ioos:station:DISL:CATA:1,2017-11-06T17:30:00Z,30.3085,-88.1395,2.032,1111122 
DISL,ioos:station:DISL:CATA:1,2017-11-06T18:30:00Z,30.3085,-88.1395,2.078,1111122 
DISL,ioos:station:DISL:CATA:1,2017-11-06T19:30:00Z,30.3085,-88.1395,2.117,1111122 
DISL,ioos:station:DISL:CATA:1,2017-11-06T20:30:00Z,30.3085,-88.1395,2.164,1111122 
DISL,ioos:station:DISL:CATA:1,2017-11-06T21:30:00Z,30.3085,-88.1395,2.226,1111122 
DISL,ioos:station:DISL:CATA:1,2017-11-06T22:30:00Z,30.3085,-88.1395,2.279,1111122 
DISL,ioos:station:DISL:CATA:1,2017-11-06T23:30:00Z,30.3085,-88.1395,2.352,1111122 
DISL,ioos:station:DISL:CATA:1,2017-11-07T00:30:00Z,30.3085,-88.1395,2.416,1111122 
DISL,ioos:station:DISL:CATA:1,2017-11-07T01:30:00Z,30.3085,-88.1395,2.488,1111122 
DISL,ioos:station:DISL:CATA:1,2017-11-07T02:30:00Z,30.3085,-88.1395,2.555,1111122 
DISL,ioos:station:DISL:CATA:1,2017-11-07T03:30:00Z,30.3085,-88.1395,2.609,1111122 
DISL,ioos:station:DISL:CATA:1,2017-11-07T04:30:00Z,30.3085,-88.1395,2.641,1111122 
DISL,ioos:station:DISL:CATA:1,2017-11-07T05:30:00Z,30.3085,-88.1395,2.638,1111122 
DISL,ioos:station:DISL:CATA:1,2017-11-07T08:00:00Z,30.3085,-88.1395,2.544,1111122 
DISL,ioos:station:DISL:CATA:1,2017-11-07T09:30:00Z,30.3085,-88.1395,2.438,1111122 
DISL,ioos:station:DISL:CATA:1,2017-11-07T10:30:00Z,30.3085,-88.1395,2.357,1111122 
DISL,ioos:station:DISL:CATA:1,2017-11-07T11:30:00Z,30.3085,-88.1395,2.254,1111122 
DISL,ioos:station:DISL:CATA:1,2017-11-07T12:30:00Z,30.3085,-88.1395,2.626,1111122 
DISL,ioos:station:DISL:CATA:1,2017-11-07T12:30:00Z,30.3085,-88.1395,2.153,1111122 
DISL,ioos:station:DISL:CATA:1,2017-11-07T13:00:00Z,30.3085,-88.1395,2.626,1111122 
DISL,ioos:station:DISL:CATA:1,2017-11-07T13:00:00Z,30.3085,-88.1395,2.118,1111122 
DISL,ioos:station:DISL:CATA:1,2017-11-07T14:30:00Z,30.3085,-88.1395,2.033,1111122 
DISL,ioos:station:DISL:CATA:1,2017-11-07T15:30:00Z,30.3085,-88.1395,2.015,1111122 
DISL,ioos:station:DISL:CATA:1,2017-11-07T16:30:00Z,30.3085,-88.1395,2.02,1111122 
DISL,ioos:station:DISL:CATA:1,2017-11-07T17:30:00Z,30.3085,-88.1395,2.032,1111122 
DISL,ioos:station:DISL:CATA:1,2017-11-07T18:30:00Z,30.3085,-88.1395,2.064,1111122 
DISL,ioos:station:DISL:CATA:1,2017-11-07T19:30:00Z,30.3085,-88.1395,2.104,1111122 
DISL,ioos:station:DISL:CATA:1,2017-11-07T20:30:00Z,30.3085,-88.1395,2.154,1111122 
DISL,ioos:station:DISL:CATA:1,2017-11-07T21:30:00Z,30.3085,-88.1395,2.203,1111122 
DISL,ioos:station:DISL:CATA:1,2017-11-07T22:30:00Z,30.3085,-88.1395,2.287,1111122 
DISL,ioos:station:DISL:CATA:1,2017-11-07T23:30:00Z,30.3085,-88.1395,2.349,1111122 
DISL,ioos:station:DISL:CATA:1,2017-11-08T00:30:00Z,30.3085,-88.1395,2.407,1111122 
DISL,ioos:station:DISL:CATA:1,2017-11-08T01:30:00Z,30.3085,-88.1395,2.478,1111122 
DISL,ioos:station:DISL:CATA:1,2017-11-08T02:30:00Z,30.3085,-88.1395,2.544,1111122 
DISL,ioos:station:DISL:CATA:1,2017-11-08T03:30:00Z,30.3085,-88.1395,2.605,1111122 
DISL,ioos:station:DISL:CATA:1,2017-11-08T05:30:00Z,30.3085,-88.1395,2.673,1111122 
DISL,ioos:station:DISL:CATA:1,2017-11-08T06:30:00Z,30.3085,-88.1395,2.656,1111122 
DISL,ioos:station:DISL:CATA:1,2017-11-08T07:30:00Z,30.3085,-88.1395,2.621,1111122 
DISL,ioos:station:DISL:CATA:1,2017-11-08T08:30:00Z,30.3085,-88.1395,2.59,1111122 
DISL,ioos:station:DISL:CATA:1,2017-11-08T09:30:00Z,30.3085,-88.1395,2.529,1111122 
DISL,ioos:station:DISL:CATA:1,2017-11-08T10:30:00Z,30.3085,-88.1395,2.456,1111122 
DISL,ioos:station:DISL:CATA:1,2017-11-08T11:30:00Z,30.3085,-88.1395,2.37,1111122 
DISL,ioos:station:DISL:CATA:1,2017-11-08T12:30:00Z,30.3085,-88.1395,2.255,1111122 
DISL,ioos:station:DISL:CATA:1,2017-11-08T13:30:00Z,30.3085,-88.1395,2.172,1111122 
DISL,ioos:station:DISL:CATA:1,2017-11-08T14:30:00Z,30.3085,-88.1395,2.087,1111122 
DISL,ioos:station:DISL:CATA:1,2017-11-08T15:30:00Z,30.3085,-88.1395,2.035,1111122 
DISL,ioos:station:DISL:CATA:1,2017-11-08T16:30:00Z,30.3085,-88.1395,2.0,1111122 
DISL,ioos:station:DISL:CATA:1,2017-11-08T17:30:00Z,30.3085,-88.1395,2.012,1111122 
DISL,ioos:station:DISL:CATA:1,2017-11-08T18:30:00Z,30.3085,-88.1395,2.02,1111122 
DISL,ioos:station:DISL:CATA:1,2017-11-08T19:30:00Z,30.3085,-88.1395,2.056,1111122 
DISL,ioos:station:DISL:CATA:1,2017-11-08T20:30:00Z,30.3085,-88.1395,2.116,1111122 
DISL,ioos:station:DISL:CATA:1,2017-11-08T21:30:00Z,30.3085,-88.1395,2.172,1111122 
DISL,ioos:station:DISL:CATA:1,2017-11-08T22:30:00Z,30.3085,-88.1395,2.2,1111122 
DISL,ioos:station:DISL:CATA:1,2017-11-08T23:30:00Z,30.3085,-88.1395,2.227,1111122 
DISL,ioos:station:DISL:CATA:1,2017-11-09T00:30:00Z,30.3085,-88.1395,2.265,1111122 
DISL,ioos:station:DISL:CATA:1,2017-11-09T01:30:00Z,30.3085,-88.1395,2.308,1111122 
DISL,ioos:station:DISL:CATA:1,2017-11-09T02:30:00Z,30.3085,-88.1395,2.393,1111122 
DISL,ioos:station:DISL:CATA:1,2017-11-09T03:30:00Z,30.3085,-88.1395,2.464,1111122 
DISL,ioos:station:DISL:CATA:1,2017-11-09T04:00:00Z,30.3085,-88.1395,2.487,1111122 
DISL,ioos:station:DISL:CATA:1,2017-11-09T05:30:00Z,30.3085,-88.1395,2.585,1111122 
DISL,ioos:station:DISL:CATA:1,2017-11-09T07:30:00Z,30.3085,-88.1395,2.569,1111122 
DISL,ioos:station:DISL:CATA:1,2017-11-09T08:30:00Z,30.3085,-88.1395,2.54,1111122 
DISL,ioos:station:DISL:CATA:1,2017-11-09T09:30:00Z,30.3085,-88.1395,2.498,1111122 
DISL,ioos:station:DISL:CATA:1,2017-11-09T10:30:00Z,30.3085,-88.1395,2.453,1111122 
DISL,ioos:station:DISL:CATA:1,2017-11-09T11:30:00Z,30.3085,-88.1395,2.386,1111122 
DISL,ioos:station:DISL:CATA:1,2017-11-09T12:30:00Z,30.3085,-88.1395,2.579,1111122 
DISL,ioos:station:DISL:CATA:1,2017-11-09T12:30:00Z,30.3085,-88.1395,2.301,1111122 
DISL,ioos:station:DISL:CATA:1,2017-11-09T13:30:00Z,30.3085,-88.1395,2.192,1111122 
DISL,ioos:station:DISL:CATA:1,2017-11-09T14:30:00Z,30.3085,-88.1395,2.106,1111122 
DISL,ioos:station:DISL:CATA:1,2017-11-09T15:30:00Z,30.3085,-88.1395,2.036,1111122 
DISL,ioos:station:DISL:CATA:1,2017-11-09T16:30:00Z,30.3085,-88.1395,1.965,1111122 
DISL,ioos:station:DISL:CATA:1,2017-11-09T17:30:00Z,30.3085,-88.1395,1.931,1111122 
DISL,ioos:station:DISL:CATA:1,2017-11-09T18:30:00Z,30.3085,-88.1395,1.973,1111122 
DISL,ioos:station:DISL:CATA:1,2017-11-09T19:30:00Z,30.3085,-88.1395,2.004,1111122 
DISL,ioos:station:DISL:CATA:1,2017-11-09T20:30:00Z,30.3085,-88.1395,2.026,1111122 
DISL,ioos:station:DISL:CATA:1,2017-11-09T21:30:00Z,30.3085,-88.1395,2.057,1111122 
DISL,ioos:station:DISL:CATA:1,2017-11-09T22:30:00Z,30.3085,-88.1395,2.097,1111122 
DISL,ioos:station:DISL:CATA:1,2017-11-09T23:30:00Z,30.3085,-88.1395,2.15,1111122 
DISL,ioos:station:DISL:CATA:1,2017-11-10T00:30:00Z,30.3085,-88.1395,2.192,1111122 
DISL,ioos:station:DISL:CATA:1,2017-11-10T01:30:00Z,30.3085,-88.1395,2.262,1111122 
DISL,ioos:station:DISL:CATA:1,2017-11-10T02:30:00Z,30.3085,-88.1395,2.287,1111122 
DISL,ioos:station:DISL:CATA:1,2017-11-10T03:30:00Z,30.3085,-88.1395,2.36,1111122 
DISL,ioos:station:DISL:CATA:1,2017-11-10T04:30:00Z,30.3085,-88.1395,2.392,1111122 
DISL,ioos:station:DISL:CATA:1,2017-11-10T05:30:00Z,30.3085,-88.1395,2.42,1111122 
DISL,ioos:station:DISL:CATA:1,2017-11-10T06:30:00Z,30.3085,-88.1395,2.478,1111122 
DISL,ioos:station:DISL:CATA:1,2017-11-10T07:30:00Z,30.3085,-88.1395,2.514,1111122 
DISL,ioos:station:DISL:CATA:1,2017-11-10T08:30:00Z,30.3085,-88.1395,2.523,1111122 
DISL,ioos:station:DISL:CATA:1,2017-11-10T09:30:00Z,30.3085,-88.1395,2.524,1111122 
DISL,ioos:station:DISL:CATA:1,2017-11-10T10:30:00Z,30.3085,-88.1395,2.491,1111122 
DISL,ioos:station:DISL:CATA:1,2017-11-10T11:30:00Z,30.3085,-88.1395,2.443,1111122 
DISL,ioos:station:DISL:CATA:1,2017-11-10T12:30:00Z,30.3085,-88.1395,2.38,1111122 
DISL,ioos:station:DISL:CATA:1,2017-11-10T13:30:00Z,30.3085,-88.1395,2.318,1111122 
DISL,ioos:station:DISL:CATA:1,2017-11-10T14:30:00Z,30.3085,-88.1395,2.231,1111122 
DISL,ioos:station:DISL:CATA:1,2017-11-10T15:30:00Z,30.3085,-88.1395,2.134,1111122 
DISL,ioos:station:DISL:CATA:1,2017-11-10T16:30:00Z,30.3085,-88.1395,2.074,1111122 
DISL,ioos:station:DISL:CATA:1,2017-11-10T17:30:00Z,30.3085,-88.1395,2.035,1111122 
DISL,ioos:station:DISL:CATA:1,2017-11-10T18:30:00Z,30.3085,-88.1395,2.039,1111122 
DISL,ioos:station:DISL:CATA:1,2017-11-10T19:30:00Z,30.3085,-88.1395,2.07,1111122 
DISL,ioos:station:DISL:CATA:1,2017-11-10T20:30:00Z,30.3085,-88.1395,2.084,1111122 
DISL,ioos:station:DISL:CATA:1,2017-11-10T21:30:00Z,30.3085,-88.1395,2.09,1111122 
DISL,ioos:station:DISL:CATA:1,2017-11-10T22:30:00Z,30.3085,-88.1395,2.107,1111122 
DISL,ioos:station:DISL:CATA:1,2017-11-10T23:30:00Z,30.3085,-88.1395,2.161,1111122 
DISL,ioos:station:DISL:CATA:1,2017-11-11T00:30:00Z,30.3085,-88.1395,2.209,1111122 
DISL,ioos:station:DISL:CATA:1,2017-11-11T01:30:00Z,30.3085,-88.1395,2.239,1111122 
DISL,ioos:station:DISL:CATA:1,2017-11-11T02:30:00Z,30.3085,-88.1395,2.259,1111122 
DISL,ioos:station:DISL:CATA:1,2017-11-11T03:30:00Z,30.3085,-88.1395,2.3,1111122 
DISL,ioos:station:DISL:CATA:1,2017-11-11T04:30:00Z,30.3085,-88.1395,2.332,1111122 
DISL,ioos:station:DISL:CATA:1,2017-11-11T05:30:00Z,30.3085,-88.1395,2.365,1111122 
DISL,ioos:station:DISL:CATA:1,2017-11-11T06:30:00Z,30.3085,-88.1395,2.415,1111122 
DISL,ioos:station:DISL:CATA:1,2017-11-11T07:30:00Z,30.3085,-88.1395,2.443,1111122 
DISL,ioos:station:DISL:CATA:1,2017-11-11T08:30:00Z,30.3085,-88.1395,2.45,1111122 
DISL,ioos:station:DISL:CATA:1,2017-11-11T09:30:00Z,30.3085,-88.1395,2.447,1111122 
DISL,ioos:station:DISL:CATA:1,2017-11-11T10:30:00Z,30.3085,-88.1395,2.418,1111122 
DISL,ioos:station:DISL:CATA:1,2017-11-11T11:30:00Z,30.3085,-88.1395,2.391,1111122 
DISL,ioos:station:DISL:CATA:1,2017-11-11T12:30:00Z,30.3085,-88.1395,2.375,1111122 
DISL,ioos:station:DISL:CATA:1,2017-11-11T13:30:00Z,30.3085,-88.1395,2.34,1111122 
DISL,ioos:station:DISL:CATA:1,2017-11-11T14:30:00Z,30.3085,-88.1395,2.299,1111122 
DISL,ioos:station:DISL:CATA:1,2017-11-11T15:30:00Z,30.3085,-88.1395,2.248,1111122 
DISL,ioos:station:DISL:CATA:1,2017-11-11T16:30:00Z,30.3085,-88.1395,2.221,1111122 
DISL,ioos:station:DISL:CATA:1,2017-11-11T17:30:00Z,30.3085,-88.1395,2.215,1111122 
DISL,ioos:station:DISL:CATA:1,2017-11-11T18:30:00Z,30.3085,-88.1395,2.213,1111122 
DISL,ioos:station:DISL:CATA:1,2017-11-11T19:30:00Z,30.3085,-88.1395,2.211,1111122 
DISL,ioos:station:DISL:CATA:1,2017-11-11T20:30:00Z,30.3085,-88.1395,2.228,1111122 
DISL,ioos:station:DISL:CATA:1,2017-11-11T21:30:00Z,30.3085,-88.1395,2.244,1111122 
DISL,ioos:station:DISL:CATA:1,2017-11-11T22:00:00Z,30.3085,-88.1395,2.253,1111122 
DISL,ioos:station:DISL:CATA:1,2017-11-11T23:30:00Z,30.3085,-88.1395,2.305,1111122 
DISL,ioos:station:DISL:CATA:1,2017-11-12T00:30:00Z,30.3085,-88.1395,2.34,1111122 
DISL,ioos:station:DISL:CATA:1,2017-11-12T01:30:00Z,30.3085,-88.1395,2.376,1111122 
DISL,ioos:station:DISL:CATA:1,2017-11-12T02:30:00Z,30.3085,-88.1395,2.416,1111122 
DISL,ioos:station:DISL:CATA:1,2017-11-12T04:30:00Z,30.3085,-88.1395,2.484,1111122 
DISL,ioos:station:DISL:CATA:1,2017-11-12T05:30:00Z,30.3085,-88.1395,2.456,1111122 
DISL,ioos:station:DISL:CATA:1,2017-11-12T06:30:00Z,30.3085,-88.1395,2.441,1111122 
DISL,ioos:station:DISL:CATA:1,2017-11-12T07:30:00Z,30.3085,-88.1395,2.446,1111122 
DISL,ioos:station:DISL:CATA:1,2017-11-12T10:30:00Z,30.3085,-88.1395,2.435,1111122 
DISL,ioos:station:DISL:CATA:1,2017-11-12T11:30:00Z,30.3085,-88.1395,2.408,1111122 
DISL,ioos:station:DISL:CATA:1,2017-11-12T13:00:00Z,30.3085,-88.1395,2.391,1111122 
DISL,ioos:station:DISL:CATA:1,2017-11-12T15:30:00Z,30.3085,-88.1395,2.319,1111122 
DISL,ioos:station:DISL:CATA:1,2017-11-12T17:30:00Z,30.3085,-88.1395,2.217,1111122 
DISL,ioos:station:DISL:CATA:1,2017-11-12T18:30:00Z,30.3085,-88.1395,2.214,1111122 
DISL,ioos:station:DISL:CATA:1,2017-11-12T19:30:00Z,30.3085,-88.1395,2.256,1111122 
DISL,ioos:station:DISL:CATA:1,2017-11-12T20:30:00Z,30.3085,-88.1395,2.31,1111122 
DISL,ioos:station:DISL:CATA:1,2017-11-12T21:30:00Z,30.3085,-88.1395,2.332,1111122 
DISL,ioos:station:DISL:CATA:1,2017-11-12T22:30:00Z,30.3085,-88.1395,2.323,1111122 
DISL,ioos:station:DISL:CATA:1,2017-11-12T23:00:00Z,30.3085,-88.1395,2.321,1111122 
DISL,ioos:station:DISL:CATA:1,2017-11-13T00:30:00Z,30.3085,-88.1395,2.364,1111122 
DISL,ioos:station:DISL:CATA:1,2017-11-13T01:30:00Z,30.3085,-88.1395,2.364,1111122 
DISL,ioos:station:DISL:CATA:1,2017-11-13T02:30:00Z,30.3085,-88.1395,2.394,1111122 
DISL,ioos:station:DISL:CATA:1,2017-11-13T06:30:00Z,30.3085,-88.1395,2.358,1111122 
DISL,ioos:station:DISL:CATA:1,2017-11-13T07:30:00Z,30.3085,-88.1395,2.367,1111122 
DISL,ioos:station:DISL:CATA:1,2017-11-13T08:30:00Z,30.3085,-88.1395,2.393,1111122 
DISL,ioos:station:DISL:CATA:1,2017-11-13T09:30:00Z,30.3085,-88.1395,2.412,1111122 
DISL,ioos:station:DISL:CATA:1,2017-11-13T10:30:00Z,30.3085,-88.1395,2.385,1111122 
DISL,ioos:station:DISL:CATA:1,2017-11-13T11:30:00Z,30.3085,-88.1395,2.337,1111122 